{"data":{"norad_id":52675,"intl_designator":"2022-053V","name":"STARLINK-3934","alt_names":[],"object_type":"PAYLOAD","status":"ACTIVE","operator":null,"country":"US","launch_date":"2022-05-18","launch_site_code":"AFETR","launch_vehicle":null,"mission":null,"orbit_class":"UNKNOWN","rcs_meters":null,"size_class":null,"mass_kg":null,"dimensions":null,"purposes":["comms"],"wikipedia_slug":null,"has_3d_model":false,"image_url":null,"decayed_at":null,"tle_current":{"epoch":"2026-05-25T01:47:00.270816Z","epoch_age_seconds":68746,"freshness":"FRESH","line1":"1 52675U 22053V   26145.07430869  .00000991  00000+0  80362-4 0  9993","line2":"2 52675  53.2121 161.2179 0001250 103.1328 256.9804 15.08831728222704","mean_motion":15.08831728,"eccentricity":0.000125,"inclination_deg":53.2121,"raan_deg":161.2179,"arg_perigee_deg":103.1328,"mean_anomaly_deg":256.9804,"bstar":8.0362e-5,"rev_number":22270,"period_min":95.43807790341,"perigee_km":538.90393506519,"apogee_km":540.63341148351,"semimajor_km":6917.9056732744,"source":"CELESTRAK","updated_at":"2026-05-25T13:38:17.233451Z"}}}